This demonstration page uses our WeatherBlox Daily Observations layout. Learn more.

Left ArrowRight Arrow

44.8408, -93.29828

Hourly Observations for March 5, 2020

Temp ( °F °C ) Dew Point ( °F °C ) Humidity (%) Winds ( mph kmh ) Pressure ( in mb ) Visibility ( mi km ) Precip ( " mm )
12:53 am 00:53 Mostly Cloudy 41 5 30 -1.1 65 65 SSW 6 9 29.74 1007 10 16 0.00 0.00
1:53 am 01:53 Mostly Cloudy 44 6.7 30 -1.1 58 58 SSW 8 13 29.72 1007 10 16 0.00 0.00
2:53 am 02:53 Cloudy 43 6.1 30 -1.1 60 60 SW 8 13 29.72 1006 10 16 0.00 0.00
3:53 am 03:53 Cloudy 42 5.6 31 -0.6 65 65 WSW 7 11 29.73 1007 10 16 0.00 0.00
4:53 am 04:53 Mostly Cloudy 42 5.6 31 -0.6 65 65 W 15 24 29.74 1007 10 16 0.00 0.00
5:53 am 05:53 Cloudy 40 4.4 30 -1.1 68 68 W 13 20 29.76 1008 10 16 0.00 0.00
6:53 am 06:53 Cloudy 39 3.9 29 -1.7 67 67 W 15 24 29.77 1008 10 16 0.00 0.00
7:28 am 07:28 Cloudy 39 3.9 29 -1.7 67 67 W 13 20 29.78 1009 10 16 0.00 0.00
7:53 am 07:53 Cloudy 38 3.3 29 -1.7 70 70 W 20 31 29.77 1008 10 16 0.00 0.00
8:53 am 08:53 Cloudy with Light Rain 38 3.3 30 -1.1 73 73 W 18 30 29.77 1008 10 16 0.00 0.00
9:20 am 09:20 Cloudy with Light Rain 36 2.2 32 0 86 86 W 13 20 29.80 1009 8 13 0.00 0.00
9:36 am 09:36 Cloudy with Light Rain 37 2.8 32 0 82 82 W 12 19 29.81 1009 10 16 0.00 0.00
9:53 am 09:53 Cloudy 37 2.8 32 0 82 82 W 13 20 29.79 1009 10 16 0.00 0.00
10:53 am 10:53 Cloudy 38 3.3 31 -0.6 76 76 W 17 28 29.80 1009 10 16 0.00 0.00
11:53 am 11:53 Cloudy 36 2.2 30 -1.1 79 79 WNW 16 26 29.83 1010 10 16 0.00 0.00
11:59 am 11:59 Cloudy 36 2.2 30 -1.1 79 79 WNW 21 33 29.86 1011 10 16 0.00 0.00
12:53 pm 12:53 Cloudy with Light Rain/Snow 35 1.7 30 -1.1 82 82 WNW 15 24 29.85 1011 8 13 0.00 0.00
1:01 pm 13:01 Cloudy with Light Rain/Snow 35 1.7 30 -1.1 82 82 WNW 17 28 29.88 1012 8 13 0.00 0.00
1:53 pm 13:53 Cloudy with Light Wintry Mix 35 1.7 29 -1.7 78 78 NW 18 30 29.88 1012 8 13 0.00 0.00
2:39 pm 14:39 Cloudy with Light Snow 35 1.7 30 -1.1 82 82 WNW 16 26 29.92 1013 2 3 0.00 0.00
2:47 pm 14:47 Cloudy with Light Snow 36 2 30 -1 81 81 NW 16 26 29.93 1013 3 5 0.00 0.00
2:53 pm 14:53 Cloudy with Light Snow 35 1.7 30 -1.1 82 82 WNW 16 26 29.91 1013 3 5 0.00 0.00
3:13 pm 15:13 Cloudy with Light Snow 35 1.7 31 -0.6 85 85 NW 17 28 29.95 1014 3 5 0.00 0.00
3:45 pm 15:45 Cloudy 36 2.2 31 -0.6 82 82 NNW 23 37 29.99 1015 9 14 0.00 0.00
3:53 pm 15:53 Cloudy 36 2.2 30 -1.1 79 79 NNW 22 35 29.98 1015 8 13 0.00 0.00
4:53 pm 16:53 Cloudy 36 2.2 27 -2.8 70 70 NNW 26 43 30.04 1017 10 16 0.00 0.00
5:02 pm 17:02 Cloudy 36 2.2 26 -3.3 67 67 NNW 22 35 30.07 1018 10 16 0.00 0.00
5:53 pm 17:53 Cloudy 36 2.2 26 -3.3 67 67 NNW 20 31 30.11 1020 10 16 0.00 0.00
6:53 pm 18:53 Cloudy 35 1.7 25 -3.9 67 67 NNW 24 39 30.17 1022 10 16 0.00 0.00
7:53 pm 19:53 Cloudy 35 1.7 23 -5 61 61 NNW 21 33 30.22 1023 10 16 0.00 0.00
8:53 pm 20:53 Cloudy 34 1.1 23 -5 64 64 N 17 28 30.26 1025 10 16 0.00 0.00
9:53 pm 21:53 Mostly Cloudy 33 0.6 21 -6.1 61 61 N 14 22 30.32 1027 10 16 0.00 0.00
10:53 pm 22:53 Mostly Cloudy 32 0 20 -6.7 61 61 N 14 22 30.35 1028 10 16 0.00 0.00
11:53 pm 23:53 Mostly Clear 30 -1.1 17 -8.3 58 58 N 13 20 30.37 1028 10 16 0.00 0.00

Powered by AerisWeather